Hourly Weather Lugovoe

Today, 15 May, Saturday

Time Temperature Precipitation Wind Pressure Humidity
00:00 +14°C° 0 mm 3 mps 736 mmHg 55%
01:00 +13°C° 0 mm 3 mps 735 mmHg 57%
02:00 +13°C° 0 mm 3 mps 735 mmHg 58%
03:00 +13°C° 0 mm 3 mps 735 mmHg 59%
04:00 +12°C° 0 mm 3 mps 735 mmHg 61%
05:00 +12°C° 0 mm 3 mps 735 mmHg 62%
06:00 +14°C° 0 mm 4 mps 735 mmHg 57%
07:00 +17°C° 0 mm 4 mps 736 mmHg 52%
08:00 +19°C° 0 mm 5 mps 736 mmHg 48%
09:00 +21°C° 0 mm 4 mps 735 mmHg 44%
10:00 +23°C° 0 mm 4 mps 735 mmHg 39%
11:00 +25°C° 0 mm 4 mps 735 mmHg 35%
12:00 +26°C° 0 mm 3 mps 735 mmHg 33%
13:00 +27°C° 0 mm 3 mps 735 mmHg 31%
14:00 +28°C° 0 mm 3 mps 734 mmHg 28%
15:00 +28°C° 0 mm 3 mps 734 mmHg 28%
16:00 +28°C° 0 mm 2 mps 734 mmHg 28%
17:00 +28°C° 0 mm 2 mps 733 mmHg 28%
18:00 +26°C° 0 mm 2 mps 733 mmHg 33%
19:00 +25°C° 0 mm 3 mps 733 mmHg 38%
20:00 +22°C° 0 mm 3 mps 732 mmHg 44%
21:00 +20°C° 0.1 mm 3 mps 732 mmHg 51%
22:00 +19°C° 0.1 mm 3 mps 732 mmHg 58%
23:00 +18°C° 0.1 mm 2 mps 733 mmHg 65%

Tomorrow, 16 May, Sunday

Time Temperature Precipitation Wind Pressure Humidity
00:00 +18°C° 0.2 mm 2 mps 732 mmHg 66%
01:00 +18°C° 0.2 mm 3 mps 732 mmHg 68%
02:00 +17°C° 0.2 mm 3 mps 731 mmHg 69%
03:00 +17°C° 0 mm 3 mps 731 mmHg 69%
04:00 +17°C° 0 mm 3 mps 731 mmHg 69%
05:00 +15°C° 0 mm 4 mps 731 mmHg 70%
06:00 +18°C° 0 mm 4 mps 731 mmHg 63%
07:00 +20°C° 0 mm 5 mps 731 mmHg 56%
08:00 +22°C° 0 mm 5 mps 731 mmHg 49%
09:00 +25°C° 0 mm 5 mps 732 mmHg 45%
10:00 +26°C° 0 mm 5 mps 732 mmHg 41%
11:00 +27°C° 0 mm 5 mps 732 mmHg 38%
12:00 +28°C° 0 mm 5 mps 731 mmHg 35%
13:00 +29°C° 0 mm 5 mps 731 mmHg 33%
14:00 +30°C° 0 mm 5 mps 731 mmHg 31%
15:00 +30°C° 0 mm 5 mps 731 mmHg 31%
16:00 +30°C° 0 mm 5 mps 731 mmHg 31%
17:00 +30°C° 0 mm 5 mps 731 mmHg 31%
18:00 +28°C° 0 mm 5 mps 731 mmHg 35%
19:00 +26°C° 0 mm 4 mps 730 mmHg 39%
20:00 +24°C° 0 mm 3 mps 730 mmHg 43%
21:00 +22°C° 0 mm 3 mps 730 mmHg 43%
22:00 +22°C° 0 mm 3 mps 730 mmHg 43%
23:00 +21°C° 0 mm 3 mps 731 mmHg 42%

Day after tomorrow, 17 May, Monday

Time Temperature Precipitation Wind Pressure Humidity
00:00 +20°C° 0 mm 3 mps 731 mmHg 44%
01:00 +20°C° 0 mm 2 mps 731 mmHg 47%
02:00 +19°C° 0 mm 2 mps 731 mmHg 49%
03:00 +19°C° 0 mm 2 mps 731 mmHg 51%
04:00 +19°C° 0 mm 1 mps 731 mmHg 53%
05:00 +19°C° 0 mm 1 mps 731 mmHg 55%
06:00 +21°C° 0 mm 1 mps 732 mmHg 49%
07:00 +23°C° 0 mm 2 mps 732 mmHg 44%
08:00 +26°C° 0 mm 2 mps 732 mmHg 38%
09:00 +27°C° 0 mm 3 mps 732 mmHg 34%
10:00 +29°C° 0 mm 4 mps 732 mmHg 30%
11:00 +30°C° 0 mm 4 mps 732 mmHg 26%
12:00 +32°C° 0 mm 4 mps 732 mmHg 25%
13:00 +32°C° 0 mm 4 mps 732 mmHg 24%
14:00 +33°C° 0 mm 4 mps 732 mmHg 22%
15:00 +32°C° 0 mm 4 mps 731 mmHg 24%
16:00 +32°C° 0 mm 4 mps 731 mmHg 25%
17:00 +31°C° 0 mm 3 mps 731 mmHg 26%
18:00 +29°C° 0 mm 3 mps 730 mmHg 30%
19:00 +27°C° 0 mm 3 mps 730 mmHg 34%
20:00 +25°C° 0 mm 3 mps 730 mmHg 38%
21:00 +24°C° 0 mm 3 mps 730 mmHg 41%
22:00 +22°C° 0 mm 3 mps 730 mmHg 44%
23:00 +21°C° 0 mm 3 mps 730 mmHg 48%

18 May, Tuesday

Time Temperature Precipitation Wind Pressure Humidity
00:00 +20°C° 0 mm 3 mps 730 mmHg 49%
01:00 +20°C° 0 mm 2 mps 729 mmHg 51%
02:00 +19°C° 0 mm 2 mps 729 mmHg 53%
03:00 +19°C° 0 mm 2 mps 729 mmHg 54%
04:00 +19°C° 0 mm 3 mps 729 mmHg 55%
05:00 +19°C° 0 mm 3 mps 729 mmHg 56%
06:00 +20°C° 0 mm 4 mps 729 mmHg 51%
07:00 +22°C° 0 mm 4 mps 729 mmHg 46%
08:00 +25°C° 0 mm 5 mps 729 mmHg 41%
09:00 +27°C° 0 mm 5 mps 729 mmHg 37%
10:00 +28°C° 0 mm 4 mps 728 mmHg 33%
11:00 +30°C° 0 mm 4 mps 728 mmHg 29%
12:00 +30°C° 0 mm 5 mps 728 mmHg 28%
13:00 +30°C° 0 mm 5 mps 728 mmHg 26%
14:00 +30°C° 0 mm 6 mps 728 mmHg 25%
15:00 +30°C° 0 mm 6 mps 727 mmHg 25%
16:00 +30°C° 0 mm 6 mps 727 mmHg 26%
17:00 +30°C° 0 mm 6 mps 726 mmHg 27%
18:00 +26°C° 0 mm 7 mps 726 mmHg 38%
19:00 +22°C° 0 mm 7 mps 726 mmHg 49%
20:00 +18°C° 0 mm 8 mps 726 mmHg 61%
21:00 +19°C° 0.1 mm 6 mps 726 mmHg 60%
22:00 +19°C° 0.1 mm 5 mps 726 mmHg 59%
23:00 +19°C° 0.1 mm 3 mps 726 mmHg 57%

19 May, Wednesday

Time Temperature Precipitation Wind Pressure Humidity
00:00 +18°C° 0.1 mm 3 mps 726 mmHg 62%
01:00 +17°C° 0.1 mm 3 mps 726 mmHg 67%
02:00 +17°C° 0.1 mm 3 mps 725 mmHg 72%
03:00 +15°C° 0 mm 4 mps 725 mmHg 72%
04:00 +15°C° 0 mm 4 mps 726 mmHg 73%
05:00 +15°C° 0 mm 4 mps 726 mmHg 73%
06:00 +16°C° 0 mm 5 mps 726 mmHg 69%
07:00 +17°C° 0 mm 6 mps 726 mmHg 66%
08:00 +17°C° 0 mm 6 mps 727 mmHg 63%
09:00 +18°C° 0 mm 7 mps 727 mmHg 58%
10:00 +20°C° 0 mm 7 mps 727 mmHg 54%
11:00 +21°C° 0 mm 7 mps 728 mmHg 50%
12:00 +20°C° 0 mm 7 mps 728 mmHg 51%
13:00 +20°C° 0 mm 7 mps 728 mmHg 52%
14:00 +18°C° 0 mm 7 mps 729 mmHg 53%
15:00 +18°C° 0 mm 7 mps 729 mmHg 53%
16:00 +17°C° 0 mm 7 mps 730 mmHg 53%
17:00 +17°C° 0 mm 7 mps 730 mmHg 54%
18:00 +16°C° 0 mm 6 mps 731 mmHg 56%
19:00 +14°C° 0 mm 5 mps 731 mmHg 59%
20:00 +13°C° 0 mm 4 mps 731 mmHg 62%
21:00 +12°C° 0 mm 3 mps 732 mmHg 64%
22:00 +11°C° 0 mm 3 mps 732 mmHg 66%
23:00 +10°C° 0 mm 2 mps 733 mmHg 69%

20 May, Thursday

Time Temperature Precipitation Wind Pressure Humidity
00:00 +10°C° 0 mm 2 mps 733 mmHg 69%
01:00 +10°C° 0 mm 2 mps 733 mmHg 69%
02:00 +9°C° 0 mm 2 mps 733 mmHg 69%
03:00 +9°C° 0 mm 2 mps 734 mmHg 69%
04:00 +9°C° 0 mm 2 mps 734 mmHg 69%
05:00 +9°C° 0 mm 2 mps 735 mmHg 69%
06:00 +12°C° 0 mm 2 mps 735 mmHg 62%
07:00 +14°C° 0 mm 2 mps 735 mmHg 55%
08:00 +14°C° 0 mm 3 mps 736 mmHg 48%
09:00 +16°C° 0 mm 3 mps 736 mmHg 44%
10:00 +18°C° 0 mm 3 mps 736 mmHg 39%
11:00 +19°C° 0 mm 3 mps 736 mmHg 35%
12:00 +20°C° 0 mm 3 mps 736 mmHg 34%
13:00 +20°C° 0 mm 3 mps 736 mmHg 32%
14:00 +21°C° 0 mm 3 mps 735 mmHg 30%
15:00 +21°C° 0 mm 2 mps 735 mmHg 30%
16:00 +21°C° 0 mm 2 mps 735 mmHg 30%
17:00 +23°C° 0 mm 2 mps 735 mmHg 30%
18:00 +20°C° 0 mm 2 mps 735 mmHg 35%
19:00 +19°C° 0 mm 2 mps 735 mmHg 39%
20:00 +17°C° 0 mm 2 mps 735 mmHg 44%
21:00 +18°C° 0 mm 1 mps 735 mmHg 45%
22:00 +16°C° 0 mm 1 mps 735 mmHg 46%
23:00 +15°C° 0 mm 1 mps 735 mmHg 46%
Show more

We Need Your Consent

Meteoprog and our Service Providers may store and access personal data such as cookies, device identifiers or other similar technologies on your device and process such data to personalise content and ads, as well as provide social media features and to analyse the traffic.

  • Store and/or access information on your device

    Cookies, device identifiers or other information can be stored or accessed on your device for the purposes indicated above.

  • Personalised ads and content, ad and content measurement, audience insights, and products development

    Ads and content can be personalised based on a profile. More data can be added to better personalise ads and content. Ad and content performance can be measured. Insights about the audience who saw the ads and content can be derived. Such data can be used to develop or improve user’s experience, systems and software.

By clicking ‘I Agree’ you will allow the use of indicated cookies, device identifiers, web beacons or other similar technologies. Your settings can be changed in the browser on your device.

For certain purposes, legitimate interests may be relied on, rather than consent. You can read more about this in our Privacy and Cookie Policy.